11-04-2022, 00:00:09,    111,    0.0,    5.6,   0.00,   0.00, 1011.5,   48.8, -999.0
11-04-2022, 00:00:19,    111,    0.0,    5.6,   0.00,   0.00, 1011.5,   48.9, -999.0
11-04-2022, 00:00:28,    111,    0.0,    5.6,   0.00,   0.00, 1011.5,   49.0, -999.0
11-04-2022, 00:00:38,    128,    0.0,    5.5,   0.00,   0.00, 1011.5,   48.9, -999.0
11-04-2022, 00:00:49,    128,    0.0,    5.5,   0.00,   0.00, 1011.5,   48.8, -999.0
11-04-2022, 00:00:58,    128,    0.0,    5.4,   0.00,   0.00, 1011.5,   48.7, -999.0
11-04-2022, 00:01:08,    128,    0.0,    5.4,   0.00,   0.00, 1011.5,   48.8, -999.0
11-04-2022, 00:01:18,    128,    0.0,    5.4,   0.00,   0.00, 1011.5,   48.9, -999.0
11-04-2022, 00:01:28,    128,    0.0,    5.4,   0.00,   0.00, 1011.5,   48.9, -999.0
11-04-2022, 00:01:38,    128,    0.0,    5.4,   0.00,   0.00, 1011.5,   48.9, -999.0
11-04-2022, 00:01:48,    127,    0.0,    5.4,   0.00,   0.00, 1011.5,   49.1, -999.0
11-04-2022, 00:01:58,    128,    0.0,    5.3,   0.00,   0.00, 1011.5,   49.1, -999.0
11-04-2022, 00:02:08,    128,    0.0,    5.3,   0.00,   0.00, 1011.5,   49.1, -999.0
11-04-2022, 00:02:18,    128,    0.0,    5.3,   0.00,   0.00, 1011.5,   49.2, -999.0
11-04-2022, 00:02:28,    128,    0.0,    5.3,   0.00,   0.00, 1011.5,   49.4, -999.0
11-04-2022, 00:02:38,    128,    0.0,    5.3,   0.00,   0.00, 1011.5,   49.3, -999.0
11-04-2022, 00:02:48,    126,    0.0,    5.2,   0.00,   0.00, 1011.5,   49.3, -999.0
11-04-2022, 00:02:58,    128,    0.0,    5.2,   0.00,   0.00, 1011.5,   49.4, -999.0
11-04-2022, 00:03:08,    127,    0.0,    5.3,   0.00,   0.00, 1011.5,   49.3, -999.0
11-04-2022, 00:03:18,    127,    0.0,    5.2,   0.00,   0.00, 1011.5,   49.4, -999.0
11-04-2022, 00:03:28,    127,    0.0,    5.2,   0.00,   0.00, 1011.5,   49.6, -999.0
11-04-2022, 00:03:37,    127,    0.0,    5.2,   0.00,   0.00, 1011.5,   49.5, -999.0
11-04-2022, 00:03:47,    127,    0.0,    5.2,   0.00,   0.00, 1011.5,   49.5, -999.0
11-04-2022, 00:03:58,    127,    0.0,    5.3,   0.00,   0.00, 1011.5,   49.7, -999.0
11-04-2022, 00:04:07,    127,    0.0,    5.2,   0.00,   0.00, 1011.5,   49.7, -999.0
11-04-2022, 00:04:17,    127,    0.0,    5.3,   0.00,   0.00, 1011.5,   49.7, -999.0
11-04-2022, 00:04:27,    127,    0.0,    5.3,   0.00,   0.00, 1011.5,   49.7, -999.0
11-04-2022, 00:04:37,    127,    0.0,    5.4,   0.00,   0.00, 1011.5,   49.7, -999.0
11-04-2022, 00:04:47,    126,    0.0,    5.4,   0.00,   0.00, 1011.5,   49.8, -999.0
11-04-2022, 00:04:57,    127,    0.0,    5.4,   0.00,   0.00, 1011.5,   49.7, -999.0
11-04-2022, 00:05:07,    125,    0.0,    5.3,   0.00,   0.00, 1011.4,   49.7, -999.0
11-04-2022, 00:05:17,    125,    0.0,    5.2,   0.00,   0.00, 1011.4,   49.7, -999.0
11-04-2022, 00:05:27,    105,    0.1,    5.4,   0.00,   0.00, 1011.5,   49.8, -999.0
11-04-2022, 00:05:37,    105,    0.8,    5.4,   0.00,   0.00, 1011.6,   49.9, -999.0
11-04-2022, 00:05:47,    112,    0.3,    5.4,   0.00,   0.00, 1011.5,   49.9, -999.0
11-04-2022, 00:05:57,    125,    0.2,    5.3,   0.00,   0.00, 1011.5,   49.9, -999.0
11-04-2022, 00:06:07,    125,    0.0,    5.3,   0.00,   0.00, 1011.5,   49.8, -999.0
11-04-2022, 00:06:17,    115,    0.0,    5.3,   0.00,   0.00, 1011.4,   49.7, -999.0
11-04-2022, 00:06:27,    115,    0.2,    5.4,   0.00,   0.00, 1011.5,   49.9, -999.0
11-04-2022, 00:06:37,    115,    0.2,    5.5,   0.00,   0.00, 1011.5,   50.0, -999.0
11-04-2022, 00:06:47,    122,    0.3,    5.4,   0.00,   0.00, 1011.5,   49.9, -999.0
11-04-2022, 00:06:56,    121,    0.2,    5.4,   0.00,   0.00, 1011.5,   49.9, -999.0
11-04-2022, 00:07:07,    121,    0.0,    5.4,   0.00,   0.00, 1011.5,   49.8, -999.0
11-04-2022, 00:07:17,    121,    0.0,    5.2,   0.00,   0.00, 1011.4,   49.7, -999.0
11-04-2022, 00:07:26,    121,    0.0,    5.3,   0.00,   0.00, 1011.4,   49.7, -999.0
11-04-2022, 00:07:37,    121,    0.0,    5.2,   0.00,   0.00, 1011.4,   50.0, -999.0
11-04-2022, 00:07:46,    121,    0.0,    5.2,   0.00,   0.00, 1011.4,   50.0, -999.0
11-04-2022, 00:07:56,    121,    0.0,    5.2,   0.00,   0.00, 1011.4,   50.0, -999.0
11-04-2022, 00:08:06,    121,    0.0,    5.4,   0.00,   0.00, 1011.4,   49.9, -999.0
11-04-2022, 00:08:16,    121,    0.1,    5.4,   0.00,   0.00, 1011.5,   50.2, -999.0
11-04-2022, 00:08:26,    121,    0.0,    5.4,   0.00,   0.00, 1011.4,   49.9, -999.0
11-04-2022, 00:08:36,    121,    0.0,    5.3,   0.00,   0.00, 1011.4,   50.0, -999.0
11-04-2022, 00:08:46,    121,    0.0,    5.3,   0.00,   0.00, 1011.4,   49.9, -999.0
11-04-2022, 00:08:56,    121,    0.0,    5.4,   0.00,   0.00, 1011.4,   50.1, -999.0
11-04-2022, 00:09:06,    121,    0.0,    5.4,   0.00,   0.00, 1011.4,   50.0, -999.0
11-04-2022, 00:09:16,    121,    0.0,    5.4,   0.00,   0.00, 1011.4,   50.3, -999.0
11-04-2022, 00:09:26,    122,    0.2,    5.4,   0.00,   0.00, 1011.5,   50.2, -999.0
11-04-2022, 00:09:36,    122,    0.0,    5.4,   0.00,   0.00, 1011.5,   50.1, -999.0
11-04-2022, 00:09:46,    124,    0.0,    5.4,   0.00,   0.00, 1011.5,   50.3, -999.0
11-04-2022, 00:09:56,    124,    0.0,    5.3,   0.00,   0.00, 1011.4,   50.0, -999.0
11-04-2022, 00:10:05,    124,    0.0,    5.2,   0.00,   0.00, 1011.4,   50.0, -999.0
11-04-2022, 00:10:16,    125,    0.0,    5.3,   0.00,   0.00, 1011.4,   50.3, -999.0
11-04-2022, 00:10:26,    124,    0.0,    5.2,   0.00,   0.00, 1011.4,   50.1, -999.0
11-04-2022, 00:10:35,    124,    0.0,    5.3,   0.00,   0.00, 1011.4,   50.3, -999.0
11-04-2022, 00:10:46,    124,    0.0,    5.4,   0.00,   0.00, 1011.4,   50.2, -999.0
11-04-2022, 00:10:56,    124,    0.0,    5.4,   0.00,   0.00, 1011.4,   50.3, -999.0
11-04-2022, 00:11:05,    124,    0.0,    5.4,   0.00,   0.00, 1011.4,   50.3, -999.0
11-04-2022, 00:11:15,    124,    0.0,    5.4,   0.00,   0.00, 1011.4,   50.2, -999.0
11-04-2022, 00:11:26,    124,    0.0,    5.4,   0.00,   0.00, 1011.4,   50.1, -999.0
11-04-2022, 00:11:35,    124,    0.0,    5.4,   0.00,   0.00, 1011.4,   50.1, -999.0
11-04-2022, 00:11:45,    124,    0.0,    5.3,   0.00,   0.00, 1011.4,   50.2, -999.0
11-04-2022, 00:11:55,    123,    0.0,    5.3,   0.00,   0.00, 1011.5,   50.3, -999.0
11-04-2022, 00:12:05,    123,    0.2,    5.4,   0.00,   0.00, 1011.5,   50.5, -999.0
11-04-2022, 00:12:15,    122,    0.0,    5.3,   0.00,   0.00, 1011.4,   50.3, -999.0
11-04-2022, 00:12:25,    123,    0.0,    5.3,   0.00,   0.00, 1011.4,   50.7, -999.0
11-04-2022, 00:12:35,    122,    0.0,    5.4,   0.00,   0.00, 1011.4,   50.5, -999.0
11-04-2022, 00:12:45,    122,    0.0,    5.3,   0.00,   0.00, 1011.4,   50.4, -999.0
11-04-2022, 00:12:55,    123,    0.0,    5.3,   0.00,   0.00, 1011.4,   50.4, -999.0
11-04-2022, 00:13:05,    123,    0.0,    5.3,   0.00,   0.00, 1011.4,   50.3, -999.0
11-04-2022, 00:13:15,    122,    0.0,    5.3,   0.00,   0.00, 1011.4,   50.5, -999.0
11-04-2022, 00:13:25,    103,    0.0,    5.4,   0.00,   0.00, 1011.4,   50.3, -999.0
11-04-2022, 00:13:35,    105,    0.5,    5.5,   0.00,   0.00, 1011.6,   50.6, -999.0
11-04-2022, 00:13:45,    104,    0.4,    5.4,   0.00,   0.00, 1011.5,   50.6, -999.0
11-04-2022, 00:13:55,    109,    0.0,    5.4,   0.00,   0.00, 1011.4,   50.3, -999.0
11-04-2022, 00:14:05,    131,    0.2,    5.4,   0.00,   0.00, 1011.5,   50.5, -999.0
11-04-2022, 00:14:14,    131,    0.3,    5.3,   0.00,   0.00, 1011.5,   50.4, -999.0
11-04-2022, 00:14:24,    130,    0.0,    5.2,   0.00,   0.00, 1011.4,   50.5, -999.0
11-04-2022, 00:14:35,    130,    0.0,    5.3,   0.00,   0.00, 1011.4,   50.5, -999.0
11-04-2022, 00:14:44,    130,    0.0,    5.2,   0.00,   0.00, 1011.4,   50.5, -999.0
11-04-2022, 00:14:54,    130,    0.0,    5.3,   0.00,   0.00, 1011.4,   50.5, -999.0
11-04-2022, 00:15:05,    130,    0.0,    5.4,   0.00,   0.00, 1011.4,   50.6, -999.0
11-04-2022, 00:15:14,    130,    0.0,    5.4,   0.00,   0.00, 1011.4,   50.6, -999.0
11-04-2022, 00:15:24,    130,    0.1,    5.4,   0.00,   0.00, 1011.5,   50.7, -999.0
11-04-2022, 00:15:34,    130,    0.0,    5.4,   0.00,   0.00, 1011.4,   50.5, -999.0
11-04-2022, 00:15:44,    130,    0.0,    5.4,   0.00,   0.00, 1011.3,   50.4, -999.0
11-04-2022, 00:15:54,    130,    0.0,    5.4,   0.00,   0.00, 1011.4,   50.5, -999.0
11-04-2022, 00:16:04,    130,    0.0,    5.3,   0.00,   0.00, 1011.4,   50.5, -999.0
11-04-2022, 00:16:14,    130,    0.0,    5.4,   0.00,   0.00, 1011.4,   50.6, -999.0
11-04-2022, 00:16:24,    130,    0.0,    5.4,   0.00,   0.00, 1011.4,   50.4, -999.0
11-04-2022, 00:16:34,    119,    0.5,    5.4,   0.00,   0.00, 1011.5,   50.7, -999.0
11-04-2022, 00:16:44,    118,    0.2,    5.5,   0.00,   0.00, 1011.5,   50.8, -999.0
11-04-2022, 00:16:54,    118,    0.0,    5.4,   0.00,   0.00, 1011.4,   50.5, -999.0
11-04-2022, 00:17:04,    118,    0.0,    5.3,   0.00,   0.00, 1011.4,   50.5, -999.0
11-04-2022, 00:17:14,    118,    0.0,    5.3,   0.00,   0.00, 1011.3,   50.4, -999.0
11-04-2022, 00:17:24,    119,    0.0,    5.4,   0.00,   0.00, 1011.4,   50.6, -999.0
11-04-2022, 00:17:33,    119,    0.0,    5.3,   0.00,   0.00, 1011.4,   50.5, -999.0
11-04-2022, 00:17:44,    118,    0.0,    5.3,   0.00,   0.00, 1011.4,   50.5, -999.0
11-04-2022, 00:17:54,    119,    0.0,    5.3,   0.00,   0.00, 1011.3,   50.3, -999.0
11-04-2022, 00:18:03,    119,    0.0,    5.3,   0.00,   0.00, 1011.4,   50.5, -999.0
11-04-2022, 00:18:14,    118,    0.1,    5.2,   0.00,   0.00, 1011.4,   50.6, -999.0
11-04-2022, 00:18:23,    116,    0.0,    5.3,   0.00,   0.00, 1011.3,   50.8, -999.0
11-04-2022, 00:18:33,    115,    0.0,    5.3,   0.00,   0.00, 1011.3,   50.8, -999.0
11-04-2022, 00:18:43,    116,    0.0,    5.3,   0.00,   0.00, 1011.3,   50.6, -999.0
11-04-2022, 00:18:53,    120,    0.0,    5.3,   0.00,   0.00, 1011.3,   50.8, -999.0
11-04-2022, 00:19:03,    121,    0.0,    5.3,   0.00,   0.00, 1011.3,   50.7, -999.0
11-04-2022, 00:19:13,    121,    0.0,    5.3,   0.00,   0.00, 1011.3,   50.7, -999.0
11-04-2022, 00:19:23,    120,    0.0,    5.2,   0.00,   0.00, 1011.3,   50.8, -999.0
11-04-2022, 00:19:33,    121,    0.0,    5.3,   0.00,   0.00, 1011.3,   50.7, -999.0
11-04-2022, 00:19:43,    120,    0.0,    5.2,   0.00,   0.00, 1011.3,   50.8, -999.0
11-04-2022, 00:19:53,    121,    0.0,    5.3,   0.00,   0.00, 1011.3,   50.8, -999.0
11-04-2022, 00:20:03,    120,    0.0,    5.3,   0.00,   0.00, 1011.3,   50.8, -999.0
11-04-2022, 00:20:13,    122,    0.0,    5.2,   0.00,   0.00, 1011.3,   50.7, -999.0
11-04-2022, 00:20:23,    122,    0.0,    5.2,   0.00,   0.00, 1011.3,   50.8, -999.0
11-04-2022, 00:20:33,    122,    0.0,    5.3,   0.00,   0.00, 1011.3,   50.9, -999.0
11-04-2022, 00:20:43,    123,    0.0,    5.3,   0.00,   0.00, 1011.3,   50.8, -999.0
11-04-2022, 00:20:53,    123,    0.0,    5.3,   0.00,   0.00, 1011.3,   51.0, -999.0
11-04-2022, 00:21:03,    122,    0.0,    5.3,   0.00,   0.00, 1011.3,   50.9, -999.0
11-04-2022, 00:21:12,    122,    0.0,    5.4,   0.00,   0.00, 1011.3,   50.9, -999.0
11-04-2022, 00:21:23,    122,    0.0,    5.4,   0.00,   0.00, 1011.3,   50.9, -999.0
11-04-2022, 00:21:33,    122,    0.0,    5.4,   0.00,   0.00, 1011.3,   50.8, -999.0
11-04-2022, 00:21:42,    122,    0.0,    5.3,   0.00,   0.00, 1011.3,   50.8, -999.0
11-04-2022, 00:21:52,    122,    0.0,    5.4,   0.00,   0.00, 1011.3,   50.7, -999.0
11-04-2022, 00:22:03,    123,    0.0,    5.3,   0.00,   0.00, 1011.3,   50.6, -999.0
11-04-2022, 00:22:12,    122,    0.0,    5.2,   0.00,   0.00, 1011.3,   50.7, -999.0
11-04-2022, 00:22:22,    123,    0.0,    5.3,   0.00,   0.00, 1011.3,   50.7, -999.0
11-04-2022, 00:22:32,    122,    0.0,    5.3,   0.00,   0.00, 1011.4,   50.7, -999.0
11-04-2022, 00:22:42,    122,    0.0,    5.2,   0.00,   0.00, 1011.3,   51.0, -999.0
11-04-2022, 00:22:52,    122,    0.0,    5.3,   0.00,   0.00, 1011.3,   51.0, -999.0
11-04-2022, 00:23:02,    122,    0.0,    5.4,   0.00,   0.00, 1011.3,   51.0, -999.0
11-04-2022, 00:23:12,    124,    0.0,    5.4,   0.00,   0.00, 1011.3,   50.9, -999.0
11-04-2022, 00:23:22,    124,    0.0,    5.4,   0.00,   0.00, 1011.3,   50.8, -999.0
11-04-2022, 00:23:32,    119,    0.0,    5.3,   0.00,   0.00, 1011.3,   50.9, -999.0
11-04-2022, 00:23:42,    107,    0.0,    5.4,   0.00,   0.00, 1011.3,   50.8, -999.0
11-04-2022, 00:23:52,    107,    0.0,    5.3,   0.00,   0.00, 1011.3,   50.7, -999.0
11-04-2022, 00:24:02,    106,    0.0,    5.4,   0.00,   0.00, 1011.3,   50.7, -999.0
11-04-2022, 00:24:12,    105,    0.0,    5.4,   0.00,   0.00, 1011.3,   50.9, -999.0
11-04-2022, 00:24:21,    120,    0.0,    5.4,   0.00,   0.00, 1011.3,   50.9, -999.0
11-04-2022, 00:24:32,    140,    0.0,    5.2,   0.00,   0.00, 1011.3,   50.6, -999.0
11-04-2022, 00:24:42,    138,    0.0,    5.3,   0.00,   0.00, 1011.3,   50.7, -999.0
11-04-2022, 00:24:51,    100,    0.0,    5.3,   0.00,   0.00, 1011.3,   50.7, -999.0
11-04-2022, 00:25:02,    100,    0.0,    5.4,   0.00,   0.00, 1011.3,   50.7, -999.0
11-04-2022, 00:25:12,    100,    0.0,    5.2,   0.00,   0.00, 1011.3,   50.9, -999.0
11-04-2022, 00:25:21,    100,    0.0,    5.4,   0.00,   0.00, 1011.2,   51.0, -999.0
11-04-2022, 00:25:31,    100,    0.0,    5.4,   0.00,   0.00, 1011.3,   50.8, -999.0
11-04-2022, 00:25:42,    115,    0.0,    5.4,   0.00,   0.00, 1011.3,   50.8, -999.0
11-04-2022, 00:25:51,    120,    0.0,    5.3,   0.00,   0.00, 1011.3,   50.7, -999.0
11-04-2022, 00:26:01,    123,    0.0,    5.3,   0.00,   0.00, 1011.3,   50.9, -999.0
11-04-2022, 00:26:11,    129,    0.0,    5.3,   0.00,   0.00, 1011.3,   50.9, -999.0
11-04-2022, 00:26:21,    128,    0.1,    5.3,   0.00,   0.00, 1011.4,   51.2, -999.0
11-04-2022, 00:26:31,    128,    0.0,    5.3,   0.00,   0.00, 1011.3,   51.0, -999.0
11-04-2022, 00:26:41,    128,    0.0,    5.3,   0.00,   0.00, 1011.3,   51.0, -999.0
11-04-2022, 00:26:51,    128,    0.0,    5.3,   0.00,   0.00, 1011.3,   51.0, -999.0
11-04-2022, 00:27:01,    128,    0.0,    5.3,   0.00,   0.00, 1011.3,   51.1, -999.0
11-04-2022, 00:27:11,    128,    0.0,    5.2,   0.00,   0.00, 1011.2,   50.9, -999.0
11-04-2022, 00:27:21,    128,    0.0,    5.3,   0.00,   0.00, 1011.2,   50.8, -999.0
11-04-2022, 00:27:31,    128,    0.0,    5.3,   0.00,   0.00, 1011.2,   51.0, -999.0
11-04-2022, 00:27:41,    128,    0.0,    5.2,   0.00,   0.00, 1011.3,   51.0, -999.0
11-04-2022, 00:27:51,    128,    0.0,    5.2,   0.00,   0.00, 1011.2,   51.1, -999.0
11-04-2022, 00:28:01,    128,    0.0,    5.2,   0.00,   0.00, 1011.3,   51.0, -999.0
11-04-2022, 00:28:11,    128,    0.0,    5.2,   0.00,   0.00, 1011.2,   51.1, -999.0
11-04-2022, 00:28:21,    127,    0.0,    5.3,   0.00,   0.00, 1011.2,   51.1, -999.0
11-04-2022, 00:28:30,     99,    0.5,    5.3,   0.00,   0.00, 1011.3,   51.5, -999.0
11-04-2022, 00:28:40,    112,    0.5,    5.4,   0.00,   0.00, 1011.3,   51.4, -999.0
11-04-2022, 00:28:51,    112,    0.0,    5.3,   0.00,   0.00, 1011.3,   51.1, -999.0
11-04-2022, 00:29:00,    112,    0.0,    5.2,   0.00,   0.00, 1011.2,   51.1, -999.0
11-04-2022, 00:29:10,    112,    0.0,    5.3,   0.00,   0.00, 1011.2,   51.1, -999.0
11-04-2022, 00:29:20,    101,    0.6,    5.4,   0.00,   0.00, 1011.3,   51.3, -999.0
11-04-2022, 00:29:30,    100,    0.8,    5.4,   0.00,   0.00, 1011.4,   51.6, -999.0
11-04-2022, 00:29:40,    101,    0.0,    5.4,   0.00,   0.00, 1011.2,   51.2, -999.0
11-04-2022, 00:29:50,    102,    0.0,    5.4,   0.00,   0.00, 1011.2,   51.2, -999.0
11-04-2022, 00:30:00,    107,    0.0,    5.5,   0.00,   0.00, 1011.2,   51.2, -999.0
11-04-2022, 00:30:10,    109,    0.0,    5.4,   0.00,   0.00, 1011.2,   51.2, -999.0
11-04-2022, 00:30:20,    118,    0.3,    5.5,   0.00,   0.00, 1011.3,   51.4, -999.0
11-04-2022, 00:30:30,    118,    0.0,    5.4,   0.00,   0.00, 1011.2,   50.9, -999.0
11-04-2022, 00:30:40,    121,    0.0,    5.5,   0.00,   0.00, 1011.2,   51.3, -999.0
11-04-2022, 00:30:50,    120,    0.0,    5.4,   0.00,   0.00, 1011.2,   51.2, -999.0
11-04-2022, 00:31:00,    121,    0.1,    5.5,   0.00,   0.00, 1011.3,   51.1, -999.0
11-04-2022, 00:31:10,    120,    0.0,    5.5,   0.00,   0.00, 1011.2,   51.3, -999.0
11-04-2022, 00:31:20,    120,    0.0,    5.4,   0.00,   0.00, 1011.2,   51.1, -999.0
11-04-2022, 00:31:30,    120,    0.0,    5.4,   0.00,   0.00, 1011.2,   51.1, -999.0
11-04-2022, 00:31:40,    120,    0.0,    5.4,   0.00,   0.00, 1011.2,   51.1, -999.0
11-04-2022, 00:31:49,    120,    0.0,    5.4,   0.00,   0.00, 1011.2,   51.1, -999.0
11-04-2022, 00:32:00,    120,    0.0,    5.4,   0.00,   0.00, 1011.1,   51.0, -999.0
11-04-2022, 00:32:10,    120,    0.0,    5.3,   0.00,   0.00, 1011.1,   51.0, -999.0
11-04-2022, 00:32:19,    120,    0.0,    5.3,   0.00,   0.00, 1011.2,   51.2, -999.0
11-04-2022, 00:32:29,    120,    0.0,    5.3,   0.00,   0.00, 1011.2,   51.4, -999.0
11-04-2022, 00:32:39,    120,    0.0,    5.4,   0.00,   0.00, 1011.2,   51.4, -999.0
11-04-2022, 00:32:49,    119,    0.0,    5.4,   0.00,   0.00, 1011.1,   51.3, -999.0
11-04-2022, 00:32:59,    120,    0.0,    5.4,   0.00,   0.00, 1011.2,   51.4, -999.0
11-04-2022, 00:33:09,    120,    0.0,    5.4,   0.00,   0.00, 1011.2,   51.4, -999.0
11-04-2022, 00:33:19,    120,    0.0,    5.4,   0.00,   0.00, 1011.2,   51.1, -999.0
11-04-2022, 00:33:29,    120,    0.0,    5.4,   0.00,   0.00, 1011.1,   51.3, -999.0
11-04-2022, 00:33:39,    120,    0.0,    5.4,   0.00,   0.00, 1011.1,   51.3, -999.0
11-04-2022, 00:33:49,    138,    0.2,    5.3,   0.00,   0.00, 1011.2,   51.4, -999.0
11-04-2022, 00:33:59,    137,    0.4,    5.4,   0.00,   0.00, 1011.3,   51.5, -999.0
11-04-2022, 00:34:09,    137,    0.2,    5.3,   0.00,   0.00, 1011.3,   51.6, -999.0
11-04-2022, 00:34:19,     93,    0.5,    5.4,   0.00,   0.00, 1011.3,   51.8, -999.0
11-04-2022, 00:34:29,    105,    0.1,    5.3,   0.00,   0.00, 1011.3,   51.7, -999.0
11-04-2022, 00:34:39,    106,    0.0,    5.4,   0.00,   0.00, 1011.2,   51.5, -999.0
11-04-2022, 00:34:49,    102,    0.8,    5.4,   0.00,   0.00, 1011.3,   51.8, -999.0
11-04-2022, 00:34:59,    102,    0.0,    5.4,   0.00,   0.00, 1011.2,   51.6, -999.0
11-04-2022, 00:35:09,    102,    0.0,    5.4,   0.00,   0.00, 1011.2,   51.6, -999.0
11-04-2022, 00:35:19,    102,    0.0,    5.2,   0.00,   0.00, 1011.1,   51.4, -999.0
11-04-2022, 00:35:28,    108,    0.0,    5.3,   0.00,   0.00, 1011.1,   51.4, -999.0
11-04-2022, 00:35:39,    108,    0.0,    5.3,   0.00,   0.00, 1011.1,   51.5, -999.0
11-04-2022, 00:35:49,    108,    0.0,    5.3,   0.00,   0.00, 1011.1,   51.3, -999.0
11-04-2022, 00:35:58,    108,    0.0,    5.3,   0.00,   0.00, 1011.1,   51.2, -999.0
11-04-2022, 00:36:08,    108,    0.0,    5.3,   0.00,   0.00, 1011.1,   51.4, -999.0
11-04-2022, 00:36:18,    108,    0.0,    5.3,   0.00,   0.00, 1011.0,   51.4, -999.0
11-04-2022, 00:36:28,    108,    0.0,    5.2,   0.00,   0.00, 1011.1,   51.4, -999.0
11-04-2022, 00:36:38,    108,    0.0,    5.2,   0.00,   0.00, 1011.1,   51.4, -999.0
11-04-2022, 00:36:48,    109,    0.0,    5.2,   0.00,   0.00, 1011.1,   51.4, -999.0
11-04-2022, 00:36:58,    108,    0.0,    5.2,   0.00,   0.00, 1011.1,   51.6, -999.0
11-04-2022, 00:37:08,    108,    0.0,    5.2,   0.00,   0.00, 1011.0,   51.6, -999.0
11-04-2022, 00:37:18,    108,    0.0,    5.3,   0.00,   0.00, 1011.1,   51.7, -999.0
11-04-2022, 00:37:28,    108,    0.0,    5.3,   0.00,   0.00, 1011.1,   51.7, -999.0
11-04-2022, 00:37:38,    108,    0.0,    5.3,   0.00,   0.00, 1011.1,   51.9, -999.0
11-04-2022, 00:37:48,    108,    0.0,    5.3,   0.00,   0.00, 1011.1,   51.9, -999.0
11-04-2022, 00:37:58,    108,    0.0,    5.3,   0.00,   0.00, 1011.1,   51.5, -999.0
11-04-2022, 00:38:08,    109,    0.0,    5.2,   0.00,   0.00, 1011.0,   51.7, -999.0
11-04-2022, 00:38:18,    109,    0.0,    5.3,   0.00,   0.00, 1011.1,   51.7, -999.0
11-04-2022, 00:38:28,    109,    0.0,    5.2,   0.00,   0.00, 1011.1,   51.7, -999.0
11-04-2022, 00:38:37,    110,    0.0,    5.3,   0.00,   0.00, 1011.1,   51.8, -999.0
11-04-2022, 00:38:48,    110,    0.0,    5.2,   0.00,   0.00, 1011.1,   51.9, -999.0
11-04-2022, 00:38:58,    109,    0.0,    5.2,   0.00,   0.00, 1011.0,   51.9, -999.0
11-04-2022, 00:39:07,    109,    0.0,    5.3,   0.00,   0.00, 1011.0,   51.9, -999.0
11-04-2022, 00:39:18,    111,    0.0,    5.2,   0.00,   0.00, 1011.0,   51.9, -999.0
11-04-2022, 00:39:28,    119,    0.0,    5.2,   0.00,   0.00, 1011.1,   52.1, -999.0
11-04-2022, 00:39:37,    119,    0.0,    5.1,   0.00,   0.00, 1011.1,   51.9, -999.0
11-04-2022, 00:39:47,    119,    0.0,    5.2,   0.00,   0.00, 1011.1,   52.0, -999.0
11-04-2022, 00:39:58,    119,    0.0,    5.2,   0.00,   0.00, 1011.0,   52.0, -999.0
11-04-2022, 00:40:07,    117,    0.0,    5.1,   0.00,   0.00, 1011.0,   52.0, -999.0
11-04-2022, 00:40:17,    119,    0.0,    5.1,   0.00,   0.00, 1011.1,   52.0, -999.0
11-04-2022, 00:40:27,    119,    0.0,    5.1,   0.00,   0.00, 1011.0,   52.0, -999.0
11-04-2022, 00:40:37,    119,    0.0,    5.2,   0.00,   0.00, 1011.0,   51.9, -999.0
11-04-2022, 00:40:47,    119,    0.0,    5.2,   0.00,   0.00, 1011.0,   51.8, -999.0
11-04-2022, 00:40:57,    119,    0.0,    5.1,   0.00,   0.00, 1011.0,   51.8, -999.0
11-04-2022, 00:41:07,    124,    0.0,    5.2,   0.00,   0.00, 1011.1,   51.8, -999.0
11-04-2022, 00:41:17,    126,    0.0,    5.1,   0.00,   0.00, 1011.1,   52.0, -999.0
11-04-2022, 00:41:27,    125,    0.0,    5.1,   0.00,   0.00, 1011.1,   51.8, -999.0
11-04-2022, 00:41:37,    125,    0.0,    5.1,   0.00,   0.00, 1011.0,   52.0, -999.0
11-04-2022, 00:41:47,    125,    0.0,    5.1,   0.00,   0.00, 1011.1,   52.3, -999.0
11-04-2022, 00:41:57,    125,    0.0,    5.1,   0.00,   0.00, 1011.0,   52.1, -999.0
11-04-2022, 00:42:07,    124,    0.0,    5.2,   0.00,   0.00, 1011.0,   52.3, -999.0
11-04-2022, 00:42:16,    125,    0.0,    5.2,   0.00,   0.00, 1011.0,   52.3, -999.0
11-04-2022, 00:42:27,    125,    0.0,    5.2,   0.00,   0.00, 1011.0,   52.3, -999.0
11-04-2022, 00:42:37,    125,    0.0,    5.3,   0.00,   0.00, 1011.0,   52.2, -999.0
11-04-2022, 00:42:46,    125,    0.0,    5.2,   0.00,   0.00, 1011.0,   52.1, -999.0
11-04-2022, 00:42:56,    125,    0.0,    5.3,   0.00,   0.00, 1011.0,   52.2, -999.0
11-04-2022, 00:43:07,    125,    0.0,    5.3,   0.00,   0.00, 1011.0,   52.2, -999.0
11-04-2022, 00:43:16,    125,    0.0,    5.4,   0.00,   0.00, 1011.0,   52.2, -999.0
11-04-2022, 00:43:26,    125,    0.0,    5.3,   0.00,   0.00, 1011.0,   52.0, -999.0
11-04-2022, 00:43:37,    124,    0.0,    5.3,   0.00,   0.00, 1011.0,   52.0, -999.0
11-04-2022, 00:43:46,    125,    0.0,    5.3,   0.00,   0.00, 1011.0,   52.0, -999.0
11-04-2022, 00:43:56,    124,    0.0,    5.3,   0.00,   0.00, 1011.0,   51.9, -999.0
11-04-2022, 00:44:06,    125,    0.0,    5.3,   0.00,   0.00, 1011.0,   51.9, -999.0
11-04-2022, 00:44:16,    125,    0.0,    5.3,   0.00,   0.00, 1011.0,   51.9, -999.0
11-04-2022, 00:44:26,    123,    0.6,    5.4,   0.00,   0.00, 1011.1,   52.2, -999.0
11-04-2022, 00:44:36,    122,    0.3,    5.3,   0.00,   0.00, 1011.1,   52.2, -999.0
11-04-2022, 00:44:46,    122,    0.2,    5.3,   0.00,   0.00, 1011.0,   52.1, -999.0
11-04-2022, 00:44:56,    122,    0.0,    5.3,   0.00,   0.00, 1011.0,   52.2, -999.0
11-04-2022, 00:45:06,    122,    0.0,    5.3,   0.00,   0.00, 1011.0,   52.1, -999.0
11-04-2022, 00:45:16,    121,    0.3,    5.5,   0.00,   0.00, 1011.1,   52.4, -999.0
11-04-2022, 00:45:26,     96,    0.4,    5.3,   0.00,   0.00, 1011.0,   52.3, -999.0
11-04-2022, 00:45:36,    108,    0.8,    5.4,   0.00,   0.00, 1011.1,   52.4, -999.0
11-04-2022, 00:45:46,    111,    0.4,    5.4,   0.00,   0.00, 1011.1,   52.3, -999.0
11-04-2022, 00:45:55,    111,    0.0,    5.2,   0.00,   0.00, 1011.0,   52.3, -999.0
11-04-2022, 00:46:06,    112,    0.0,    5.2,   0.00,   0.00, 1011.0,   52.1, -999.0
11-04-2022, 00:46:16,    112,    0.3,    5.3,   0.00,   0.00, 1011.1,   52.4, -999.0
11-04-2022, 00:46:25,    112,    0.2,    5.3,   0.00,   0.00, 1011.1,   52.3, -999.0
11-04-2022, 00:46:35,    110,    0.6,    5.2,   0.00,   0.00, 1011.1,   52.5, -999.0
11-04-2022, 00:46:46,    110,    0.0,    5.2,   0.00,   0.00, 1011.0,   52.2, -999.0